Year,Month,Day,Hour,Minute,Value (Times are PST for temperature in C)
2008,11,18,10,18,9.60
2008,11,18,10,20,9.70
2008,11,18,10,21,9.70
2008,11,18,10,22,9.70
2008,11,18,10,24,9.70
2008,11,18,10,25,9.70
2008,11,18,10,26,9.70
2008,11,18,10,27,9.70
2008,11,18,10,28,9.70
2008,11,18,10,29,9.70
2008,11,18,10,30,9.70
2008,11,18,10,31,9.70
2008,11,18,10,32,9.70
2008,11,18,10,33,9.80
2008,11,18,10,34,9.80
2008,11,18,10,35,9.80
2008,11,18,10,36,9.80
2008,11,18,10,37,9.90
2008,11,18,10,38,9.90
2008,11,18,10,39,9.90
2008,11,18,10,40,10.00
2008,11,18,10,41,10.10
2008,11,18,10,42,10.10
2008,11,18,10,43,10.10
2008,11,18,10,44,10.20
2008,11,18,10,45,10.20
2008,11,18,10,46,10.20
2008,11,18,10,47,10.20
2008,11,18,10,48,10.20
2008,11,18,10,49,10.20
2008,11,18,10,50,10.20
2008,11,18,10,51,10.20
2008,11,18,10,52,10.30
2008,11,18,10,53,10.30
2008,11,18,10,54,10.30
2008,11,18,10,55,10.40
2008,11,18,10,56,10.40
2008,11,18,10,57,10.50
2008,11,18,10,58,10.60
2008,11,18,10,59,10.60
2008,11,18,11,00,10.70
2008,11,18,11,01,10.80
2008,11,18,11,02,10.90
2008,11,18,11,03,10.90
2008,11,18,11,04,11.00
2008,11,18,11,05,11.10
2008,11,18,11,06,11.10
2008,11,18,11,07,11.10
2008,11,18,11,08,11.20
2008,11,18,11,09,11.20
2008,11,18,11,10,11.20
2008,11,18,11,11,11.30
2008,11,18,11,12,11.30
2008,11,18,11,13,11.30
2008,11,18,11,14,11.30
2008,11,18,11,15,11.30
2008,11,18,11,16,11.20
2008,11,18,11,17,11.10
2008,11,18,11,18,11.10
2008,11,18,11,19,11.10
2008,11,18,11,20,11.00
2008,11,18,11,21,10.90
2008,11,18,11,22,10.90
2008,11,18,11,23,10.90
2008,11,18,11,24,10.80
2008,11,18,11,25,10.70
2008,11,18,11,26,10.70
2008,11,18,11,27,10.60
2008,11,18,11,28,10.60
2008,11,18,11,29,10.60
2008,11,18,11,30,10.70
2008,11,18,11,31,10.70
2008,11,18,11,32,10.60
2008,11,18,11,33,10.70
2008,11,18,11,34,10.70
2008,11,18,11,35,10.80
2008,11,18,11,36,10.80
2008,11,18,11,37,10.90
2008,11,18,11,38,10.90
2008,11,18,11,39,10.90
2008,11,18,11,40,10.90
2008,11,18,11,41,10.90
2008,11,18,11,42,10.90
2008,11,18,11,43,10.90
2008,11,18,11,44,10.90
2008,11,18,11,45,10.90
2008,11,18,11,46,10.90
2008,11,18,11,47,10.80
2008,11,18,11,48,10.90
2008,11,18,11,49,10.90
2008,11,18,11,50,10.90
2008,11,18,11,51,10.90
2008,11,18,11,52,10.90
2008,11,18,11,53,10.90
2008,11,18,11,54,10.80
2008,11,18,11,55,10.80
2008,11,18,11,56,10.80
2008,11,18,11,57,10.80
2008,11,18,11,58,10.80
2008,11,18,11,59,10.80
2008,11,18,12,00,10.80
2008,11,18,12,01,10.80
2008,11,18,12,02,10.70
2008,11,18,12,03,10.70
2008,11,18,12,04,10.70
2008,11,18,12,05,10.70
2008,11,18,12,06,10.80
2008,11,18,12,07,10.80
2008,11,18,12,08,10.90
2008,11,18,12,09,10.90
2008,11,18,12,10,10.90
2008,11,18,12,11,10.80
2008,11,18,12,12,10.80
2008,11,18,12,13,10.90
2008,11,18,12,14,10.90
2008,11,18,12,15,10.80
2008,11,18,12,16,10.90
2008,11,18,12,17,10.90
2008,11,18,12,18,10.90
2008,11,18,12,19,10.80
2008,11,18,12,20,10.80
2008,11,18,12,21,10.80
2008,11,18,12,22,10.80
2008,11,18,12,23,10.80
2008,11,18,12,24,10.80
2008,11,18,12,25,10.80
2008,11,18,12,26,10.80
2008,11,18,12,27,10.80
2008,11,18,12,28,10.80
2008,11,18,12,29,10.80
2008,11,18,12,30,10.80
2008,11,18,12,31,10.90
2008,11,18,12,32,10.90
2008,11,18,12,33,10.90
2008,11,18,12,34,10.90
2008,11,18,12,35,11.00
2008,11,18,12,36,11.10
2008,11,18,12,37,11.10
2008,11,18,12,38,11.10
2008,11,18,12,39,11.00
2008,11,18,12,40,10.90
2008,11,18,12,41,10.90
2008,11,18,12,42,10.90
2008,11,18,12,43,10.90
2008,11,18,12,44,10.90
2008,11,18,12,45,10.90
2008,11,18,12,46,10.90
2008,11,18,12,47,10.90
2008,11,18,12,48,10.90
2008,11,18,12,49,10.90
2008,11,18,12,50,10.90
2008,11,18,12,51,10.80
2008,11,18,12,52,10.90
2008,11,18,12,53,10.90
2008,11,18,12,54,10.90
2008,11,18,12,55,10.90
2008,11,18,12,56,10.90
2008,11,18,12,57,10.90
2008,11,18,12,58,10.90
2008,11,18,12,59,10.80
2008,11,18,13,00,10.80
2008,11,18,13,01,10.80
2008,11,18,13,02,10.80
2008,11,18,13,03,10.80
2008,11,18,13,04,10.90
2008,11,18,13,05,10.90
2008,11,18,13,06,10.90
2008,11,18,13,07,10.90
2008,11,18,13,08,10.90
2008,11,18,13,09,10.90
2008,11,18,13,10,10.90
2008,11,18,13,11,10.90
2008,11,18,13,12,10.90
2008,11,18,13,13,10.80
2008,11,18,13,14,10.80
2008,11,18,13,15,10.80
2008,11,18,13,16,10.80
2008,11,18,13,17,10.70
2008,11,18,13,18,10.70
2008,11,18,13,19,10.80
2008,11,18,13,20,10.90
2008,11,18,13,21,10.90
2008,11,18,13,22,10.90
2008,11,18,13,23,10.90
2008,11,18,13,24,11.10
2008,11,18,13,25,11.00
2008,11,18,13,26,10.90
2008,11,18,13,27,10.90
2008,11,18,13,28,10.90
2008,11,18,13,29,10.80
2008,11,18,13,30,10.70
2008,11,18,13,31,10.70
2008,11,18,13,32,10.70
2008,11,18,13,33,10.60
2008,11,18,13,34,10.60
2008,11,18,13,35,10.60
2008,11,18,13,36,10.70
2008,11,18,13,37,10.70
2008,11,18,13,38,10.70
2008,11,18,13,39,10.70
2008,11,18,13,40,10.80
2008,11,18,13,41,10.90
2008,11,18,13,42,10.90
2008,11,18,13,43,10.90
2008,11,18,13,44,10.90
2008,11,18,13,45,10.90
2008,11,18,13,46,10.90
2008,11,18,13,47,10.90
2008,11,18,13,48,10.90
2008,11,18,13,49,10.90
2008,11,18,13,50,10.80
2008,11,18,13,51,10.80
2008,11,18,13,52,10.80
2008,11,18,13,53,10.80
2008,11,18,13,54,10.80
2008,11,18,13,55,10.80
2008,11,18,13,56,10.80
2008,11,18,13,57,10.80
2008,11,18,13,58,10.90
2008,11,18,13,59,10.90
2008,11,18,14,00,10.90
2008,11,18,14,01,10.90
2008,11,18,14,02,11.00
2008,11,18,14,03,11.10
2008,11,18,14,04,11.10
2008,11,18,14,05,11.10
2008,11,18,14,06,11.10
2008,11,18,14,07,11.10
2008,11,18,14,08,11.20
2008,11,18,14,09,11.20
2008,11,18,14,10,11.20
2008,11,18,14,11,11.30
2008,11,18,14,12,11.30
2008,11,18,14,13,11.30
2008,11,18,14,14,11.20
2008,11,18,14,15,11.10
2008,11,18,14,16,11.10
2008,11,18,14,17,11.10
2008,11,18,14,18,11.00
2008,11,18,14,19,10.90
2008,11,18,14,20,10.90
2008,11,18,14,21,10.90
2008,11,18,14,22,10.90
2008,11,18,14,23,10.90
2008,11,18,14,24,10.90
2008,11,18,14,25,10.90
2008,11,18,14,26,10.90
2008,11,18,14,27,10.90
2008,11,18,14,28,10.90
2008,11,18,14,29,10.90
2008,11,18,14,30,10.90
2008,11,18,14,31,10.90
2008,11,18,14,32,10.90
2008,11,18,14,33,10.90
2008,11,18,14,34,10.90
2008,11,18,14,35,10.80
2008,11,18,14,36,10.80
2008,11,18,14,37,10.80
2008,11,18,14,38,10.80
2008,11,18,14,39,10.80
2008,11,18,14,40,10.80
2008,11,18,14,41,10.80
2008,11,18,14,42,10.80
2008,11,18,14,43,10.80
2008,11,18,14,44,10.80
2008,11,18,14,45,10.80
2008,11,18,14,46,10.80
2008,11,18,14,47,10.80
2008,11,18,14,48,10.80
2008,11,18,14,49,10.80
2008,11,18,14,50,10.80
2008,11,18,14,51,10.70
2008,11,18,14,52,10.70
2008,11,18,14,53,10.70
2008,11,18,14,54,10.70
2008,11,18,14,55,10.60
2008,11,18,14,56,10.70
2008,11,18,14,57,10.70
2008,11,18,14,58,10.80
2008,11,18,14,59,10.80
2008,11,18,15,00,10.80
2008,11,18,15,01,10.80
2008,11,18,15,02,10.90
2008,11,18,15,03,10.90
2008,11,18,15,04,10.90
2008,11,18,15,05,10.90
2008,11,18,15,06,10.90
2008,11,18,15,07,10.90
2008,11,18,15,08,10.90
2008,11,18,15,09,10.80
2008,11,18,15,10,10.80
2008,11,18,15,11,10.80
2008,11,18,15,12,10.80
2008,11,18,15,13,10.70
2008,11,18,15,14,10.60
2008,11,18,15,15,10.60
2008,11,18,15,16,10.60
2008,11,18,15,17,10.60
2008,11,18,15,18,10.60
2008,11,18,15,19,10.50
2008,11,18,15,20,10.40
2008,11,18,15,21,10.40
2008,11,18,15,22,10.40
2008,11,18,15,23,10.30
2008,11,18,15,24,10.20
2008,11,18,15,25,10.20
2008,11,18,15,26,10.10
2008,11,18,15,27,10.10
2008,11,18,15,28,10.10
2008,11,18,15,29,10.10
2008,11,18,15,30,10.10
2008,11,18,15,31,10.10
2008,11,18,15,32,10.00
2008,11,18,15,33,9.90
2008,11,18,15,34,9.90
2008,11,18,15,35,9.90
2008,11,18,15,36,9.90
2008,11,18,15,37,9.90
2008,11,18,15,38,9.90
2008,11,18,15,39,9.90
2008,11,18,15,40,9.90
2008,11,18,15,41,9.90
2008,11,18,15,42,9.90
2008,11,18,15,43,9.90
2008,11,18,15,44,9.90
2008,11,18,15,45,9.90
2008,11,18,15,46,9.90
2008,11,18,15,47,9.90
2008,11,18,15,48,9.90
2008,11,18,15,49,9.90
2008,11,18,15,50,9.90
2008,11,18,15,51,9.90
2008,11,18,15,52,9.80
2008,11,18,15,53,9.80
2008,11,18,15,54,9.70
2008,11,18,15,55,9.70
2008,11,18,15,56,9.70
2008,11,18,15,57,9.70
2008,11,18,15,58,9.60
2008,11,18,15,59,9.60
2008,11,18,16,00,9.50
2008,11,18,16,01,9.50
2008,11,18,16,02,9.50
2008,11,18,16,03,9.40
2008,11,18,16,04,9.40
2008,11,18,16,05,9.40
2008,11,18,16,06,9.30
2008,11,18,16,07,9.30
2008,11,18,16,08,9.30
2008,11,18,16,09,9.30
2008,11,18,16,10,9.30
2008,11,18,16,11,9.30
2008,11,18,16,12,9.30
2008,11,18,16,13,9.30
2008,11,18,16,14,9.30
2008,11,18,16,15,9.30
2008,11,18,16,16,9.30
2008,11,18,16,17,9.30
2008,11,18,16,18,9.30
2008,11,18,16,19,9.20
2008,11,18,16,20,9.20
2008,11,18,16,21,9.20
2008,11,18,16,22,9.20
2008,11,18,16,23,9.20
2008,11,18,16,24,9.20
2008,11,18,16,25,9.20
2008,11,18,16,26,9.10
2008,11,18,16,27,9.10
2008,11,18,16,28,9.10
2008,11,18,16,29,9.00
2008,11,18,16,30,9.00
2008,11,18,16,31,9.00
2008,11,18,16,32,9.00
2008,11,18,16,33,9.00
2008,11,18,16,34,8.90
2008,11,18,16,35,8.90
2008,11,18,16,36,8.80
2008,11,18,16,37,8.70
2008,11,18,16,38,8.70
2008,11,18,16,39,8.70
2008,11,18,16,40,8.70
2008,11,18,16,41,8.60
2008,11,18,16,42,8.50
2008,11,18,16,43,8.50
2008,11,18,16,44,8.50
2008,11,18,16,45,8.40
2008,11,18,16,46,8.40
2008,11,18,16,47,8.30
2008,11,18,16,48,8.30
2008,11,18,16,49,8.30
2008,11,18,16,50,8.20
2008,11,18,16,51,8.20
2008,11,18,16,52,8.20
2008,11,18,16,53,8.20
2008,11,18,16,54,8.10
2008,11,18,16,55,8.10
2008,11,18,16,56,8.00
2008,11,18,16,57,8.00
2008,11,18,16,58,7.90
2008,11,18,16,59,7.90
2008,11,18,17,00,7.90
2008,11,18,17,01,7.80
2008,11,18,17,02,7.80
2008,11,18,17,03,7.80
2008,11,18,17,04,7.80
2008,11,18,17,05,7.70
2008,11,18,17,06,7.70
2008,11,18,17,07,7.70
2008,11,18,17,08,7.60
2008,11,18,17,09,7.60
2008,11,18,17,10,7.50
2008,11,18,17,11,7.50
2008,11,18,17,12,7.50
2008,11,18,17,13,7.40
2008,11,18,17,14,7.40
2008,11,18,17,15,7.40
2008,11,18,17,16,7.30
2008,11,18,17,17,7.30
2008,11,18,17,18,7.30
2008,11,18,17,19,7.30
2008,11,18,17,20,7.30
2008,11,18,17,21,7.30
2008,11,18,17,22,7.20
2008,11,18,17,23,7.20
2008,11,18,17,24,7.20
2008,11,18,17,25,7.10
2008,11,18,17,26,7.10
2008,11,18,17,27,7.00
2008,11,18,17,28,7.00
2008,11,18,17,29,7.00
2008,11,18,17,30,6.90
2008,11,18,17,31,6.90
2008,11,18,17,32,6.80
2008,11,18,17,33,6.80
2008,11,18,17,34,6.80
2008,11,18,17,35,6.80
2008,11,18,17,36,6.80
2008,11,18,17,37,6.70
2008,11,18,17,38,6.70
2008,11,18,17,39,6.70
2008,11,18,17,40,6.70
2008,11,18,17,41,6.60
2008,11,18,17,42,6.60
2008,11,18,17,43,6.60
2008,11,18,17,44,6.60
2008,11,18,17,45,6.50
2008,11,18,17,46,6.40
2008,11,18,17,47,6.40
2008,11,18,17,48,6.40
2008,11,18,17,49,6.30
2008,11,18,17,50,6.30
2008,11,18,17,51,6.30
2008,11,18,17,52,6.20
2008,11,18,17,53,6.20
2008,11,18,17,54,6.20
2008,11,18,17,55,6.20
2008,11,18,17,56,6.20
2008,11,18,17,57,6.20
2008,11,18,17,58,6.10
2008,11,18,17,59,6.10
2008,11,18,18,00,6.10
2008,11,18,18,01,6.00
2008,11,18,18,02,6.00
2008,11,18,18,03,6.00
2008,11,18,18,04,6.00
2008,11,18,18,05,6.00
2008,11,18,18,06,5.90
2008,11,18,18,07,5.90
2008,11,18,18,08,5.90
2008,11,18,18,09,5.80
2008,11,18,18,10,5.80
2008,11,18,18,11,5.80
2008,11,18,18,12,5.80
2008,11,18,18,13,5.70
2008,11,18,18,14,5.70
2008,11,18,18,15,5.70
2008,11,18,18,16,5.70
2008,11,18,18,17,5.70
2008,11,18,18,18,5.70
2008,11,18,18,19,5.70
2008,11,18,18,20,5.70
2008,11,18,18,21,5.60
2008,11,18,18,22,5.60
2008,11,18,18,23,5.60
2008,11,18,18,24,5.50
2008,11,18,18,25,5.50
2008,11,18,18,26,5.50
2008,11,18,18,27,5.50
2008,11,18,18,28,5.50
2008,11,18,18,29,5.50
2008,11,18,18,30,5.40
2008,11,18,18,31,5.40
2008,11,18,18,32,5.40
2008,11,18,18,33,5.40
2008,11,18,18,34,5.30
2008,11,18,18,35,5.30
2008,11,18,18,36,5.30
2008,11,18,18,37,5.30
2008,11,18,18,38,5.30
2008,11,18,18,39,5.30
2008,11,18,18,40,5.30
2008,11,18,18,41,5.30
2008,11,18,18,42,5.20
2008,11,18,18,43,5.20
2008,11,18,18,44,5.20
2008,11,18,18,45,5.20
2008,11,18,18,46,5.20
2008,11,18,18,47,5.20
2008,11,18,18,48,5.20
2008,11,18,18,49,5.20
2008,11,18,18,50,5.20
2008,11,18,18,51,5.20
2008,11,18,18,52,5.20
2008,11,18,18,53,5.20
2008,11,18,18,54,5.20
2008,11,18,18,55,5.20
2008,11,18,18,56,5.10
2008,11,18,18,57,5.10
2008,11,18,18,58,5.10
2008,11,18,18,59,5.10
2008,11,18,19,00,5.10
2008,11,18,19,01,5.10
2008,11,18,19,02,5.10
2008,11,18,19,03,5.10
2008,11,18,19,04,5.10
2008,11,18,19,05,5.10
2008,11,18,19,06,5.10
2008,11,18,19,07,4.90
2008,11,18,19,08,4.90
2008,11,18,19,09,4.90
2008,11,18,19,10,4.90
2008,11,18,19,11,4.90
2008,11,18,19,12,4.90
2008,11,18,19,13,4.90
2008,11,18,19,14,4.90
2008,11,18,19,15,4.80
2008,11,18,19,16,4.80
2008,11,18,19,17,4.80
2008,11,18,19,18,4.80
2008,11,18,19,19,4.80
2008,11,18,19,20,4.90
2008,11,18,19,21,4.90
2008,11,18,19,22,4.90
2008,11,18,19,23,4.80
2008,11,18,19,24,4.80
2008,11,18,19,25,4.80
2008,11,18,19,26,4.80
2008,11,18,19,27,4.80
2008,11,18,19,28,4.70
2008,11,18,19,29,4.70
2008,11,18,19,30,4.60
2008,11,18,19,31,4.60
2008,11,18,19,32,4.60
2008,11,18,19,33,4.60
2008,11,18,19,34,4.60
2008,11,18,19,35,4.60
2008,11,18,19,36,4.60
2008,11,18,19,37,4.60
2008,11,18,19,38,4.60
2008,11,18,19,39,4.60
2008,11,18,19,40,4.60
2008,11,18,19,41,4.60
2008,11,18,19,42,4.60
2008,11,18,19,43,4.60
2008,11,18,19,44,4.60
2008,11,18,19,45,4.60
2008,11,18,19,46,4.60
2008,11,18,19,47,4.60
2008,11,18,19,48,4.70
2008,11,18,19,49,4.70
2008,11,18,19,50,4.70
2008,11,18,19,51,4.70
2008,11,18,19,52,4.70
2008,11,18,19,53,4.70
2008,11,18,19,54,4.80
2008,11,18,19,55,4.80
2008,11,18,19,56,4.80
2008,11,18,19,57,4.80
2008,11,18,19,58,4.80
2008,11,18,19,59,4.80
2008,11,18,20,00,4.80
2008,11,18,20,01,4.80
2008,11,18,20,02,4.80
2008,11,18,20,03,4.80
2008,11,18,20,04,4.80
2008,11,18,20,05,4.80
2008,11,18,20,06,4.70
2008,11,18,20,07,4.70
2008,11,18,20,08,4.60
2008,11,18,20,09,4.60
2008,11,18,20,10,4.60
2008,11,18,20,11,4.60
2008,11,18,20,12,4.60
2008,11,18,20,13,4.60
2008,11,18,20,14,4.60
2008,11,18,20,15,4.60
2008,11,18,20,16,4.60
2008,11,18,20,17,4.70
2008,11,18,20,18,4.70
2008,11,18,20,19,4.80
2008,11,18,20,20,4.80
2008,11,18,20,21,4.80
2008,11,18,20,22,4.90
2008,11,18,20,23,4.90
2008,11,18,20,24,4.90
2008,11,18,20,25,5.00
2008,11,18,20,26,5.10
2008,11,18,20,27,5.10
2008,11,18,20,28,5.20
2008,11,18,20,29,5.20
2008,11,18,20,30,5.20
2008,11,18,20,31,5.30
2008,11,18,20,32,5.30
2008,11,18,20,33,5.30
2008,11,18,20,34,5.30
2008,11,18,20,35,5.20
2008,11,18,20,36,5.20
2008,11,18,20,37,5.30
2008,11,18,20,38,5.30
2008,11,18,20,39,5.30
2008,11,18,20,40,5.30
2008,11,18,20,41,5.30
2008,11,18,20,42,5.30
2008,11,18,20,43,5.40
2008,11,18,20,44,5.40
2008,11,18,20,45,5.40
2008,11,18,20,46,5.50
2008,11,18,20,47,5.50
2008,11,18,20,48,5.50
2008,11,18,20,49,5.60
2008,11,18,20,50,5.60
2008,11,18,20,51,5.70
2008,11,18,20,52,5.70
2008,11,18,20,53,5.70
2008,11,18,20,54,5.70
2008,11,18,20,55,5.80
2008,11,18,20,56,5.80
2008,11,18,20,57,5.80
2008,11,18,20,58,5.80
2008,11,18,20,59,5.90
2008,11,18,21,00,5.90
2008,11,18,21,01,6.00
2008,11,18,21,02,6.00
2008,11,18,21,03,6.00
2008,11,18,21,04,6.10
2008,11,18,21,05,6.10
2008,11,18,21,06,6.10
2008,11,18,21,07,6.10
2008,11,18,21,08,6.10
2008,11,18,21,09,6.20
2008,11,18,21,10,6.20
2008,11,18,21,11,6.20
2008,11,18,21,12,6.20
2008,11,18,21,13,6.20
2008,11,18,21,14,6.30
2008,11,18,21,15,6.30
2008,11,18,21,16,6.30
2008,11,18,21,17,6.40
2008,11,18,21,18,6.40
2008,11,18,21,19,6.50
2008,11,18,21,20,6.60
2008,11,18,21,21,6.60
2008,11,18,21,22,6.60
2008,11,18,21,23,6.60
2008,11,18,21,24,6.60
2008,11,18,21,25,6.60
2008,11,18,21,26,6.70
2008,11,18,21,27,6.70
2008,11,18,21,28,6.70
2008,11,18,21,29,6.70
2008,11,18,21,30,6.70
2008,11,18,21,31,6.70
2008,11,18,21,32,6.70
2008,11,18,21,33,6.80
2008,11,18,21,34,6.80
2008,11,18,21,35,6.80
2008,11,18,21,36,6.80
2008,11,18,21,39,6.80
